This is the latest recevied weather packets stored in our database for station/object OE-11179. If no packets are shown the sender has not sent any weather packets the latest 10 day(s).
| Time | Temp. | Humidity | Pressure | Rain* | Wind** | Luminosity | Snow |
|---|---|---|---|---|---|---|---|
| 1787658102 | 19.44° C | 67% | - | 0 mm | - | - | - |
| 1787657728 | 20° C | 71% | - | 0 mm | - | - | - |
| 1787657128 | 19.44° C | 74% | - | 0 mm | - | - | - |
| 1787654502 | 18.89° C | 77% | - | 0 mm | - | - | - |
| 1787654120 | 18.89° C | 74% | - | 0 mm | - | - | - |
| 1787652326 | 18.89° C | 80% | - | 0 mm | - | - | - |
| 1787651728 | 18.33° C | 77% | - | 0 mm | - | - | - |
| 1787650902 | 18.33° C | 80% | - | 0 mm | - | - | - |
| 1787650529 | 18.33° C | 80% | - | 0 mm | - | - | - |
| 1787649929 | 18.33° C | 78% | - | 0 mm | - | - | - |
| 1787649101 | 17.78° C | 87% | - | 0 mm | - | - | - |
| 1787648729 | 17.78° C | 90% | - | 0.25 mm | - | - | - |
| 1787648129 | 17.22° C | 88% | - | 0.25 mm | - | - | - |
| 1787647301 | 17.22° C | 88% | - | 0.25 mm | - | - | - |
| 1787646929 | 17.22° C | 92% | - | 0.25 mm | - | - | - |
| 1787646329 | 16.67° C | 91% | - | 0.25 mm | - | - | - |
| 1787645501 | 16.11° C | 95% | - | 0.25 mm | - | - | - |
| 1787645129 | 15.56° C | 95% | - | 0.51 mm | - | - | - |
| 1787644529 | 15.56° C | 96% | - | 0.51 mm | - | - | - |
| 1787643703 | 15° C | 95% | - | 0.51 mm | - | - | - |
| 1787643330 | 15° C | 93% | - | 0.51 mm | - | - | - |
| 1787642730 | 14.44° C | 94% | - | 0.51 mm | - | - | - |
| 1787641903 | 14.44° C | 95% | - | 0.51 mm | - | - | - |
| 1787641529 | 14.44° C | 94% | - | 0.51 mm | - | - | - |
| 1787640929 | 14.44° C | 91% | - | 0.25 mm | - | - | - |
* Rain latest hour (hover to see other rain measurements)
** Current wind speed in m/s (hover to see current wind gust speed)